Location: Firdgum
(53.2488°N, 5.5615°E)
Time: 00:47:09
(UTC+00:00)

Okean 1-7 - Pass Details

Date: 08 December 2019
Orbit: 591 x 619 km, 82.5° (Epoch: 19 January)

Event Time Altitude Azimuth Distance (km) Brightness Sun altitude
Exits shadow 04:43:16 36° 9° (N) 989 4.0 -24.8°
Maximum altitude 04:44:54 63° 76° (ENE) 697 3.4 -24.6°
Drops below altitude 10° 04:49:16 10° 158° (SSE) 1,982 6.0 -23.9°
Sets 04:51:30 0° 162° (SSE) 2,880 6.8 -23.6°
